Lucknow, India

7:06 PM IST on May 25, 2018 (GMT +0530)
Lucknow

Weather History for VILK - December, 2013

Change the Weather History Date:

Thursday, December 5, 2013

  Actual Average Record
Temperature  
Mean Temperature 62 °F -  
Max Temperature 79 °F 68 °F 84 °F (2006)
Min Temperature 44 °F 50 °F 44 °F (2013)
Degree Days  
Heating Degree Days 4    
Growing Degree Days 12 (Base 50)    
Moisture  
Dew Point 51 °F    
Average Humidity 63    
Maximum Humidity 94    
Minimum Humidity 37    
Precipitation  
Precipitation 0.00 in - - ()
Sea Level Pressure  
Sea Level Pressure 29.95 in    
Wind  
Wind Speed 3 mph ()    
Max Wind Speed 9 mph    
Max Gust Speed -    
Visibility 1.2 miles    
Events Fog    
Averages and records for this station are not official NWS values.
T = Trace of Precipitation, MM = Missing Value Source: Averaged Metar Reports

Daily Weather History Graph

Daily Weather History Graph

Search for Another Location

Airport or City:

Astronomy

Dec. 05, 2013 Rise Set
Actual Time 6:40 AM IST 5:13 PM IST
Civil Twilight 6:15 AM IST 5:38 PM IST
Nautical Twilight 5:46 AM IST 6:07 PM IST
Astronomical Twilight 5:18 AM IST 6:35 PM IST
Moon 8:42 AM IST (12/5) 7:53 PM IST (12/5)
Length of Visible Light 11h 23m
Length of Day
10h 32m
Waxing Crescent, 7% of the Moon is Illuminated
Dec 5
Waxing Crescent
Dec 9
First Quarter
Dec 17
Full
Dec 25
Last Quarter
Jan 1
New

Hourly Weather History & Observations

Time (IST) Temp. Dew Point Humidity Pressure Visibility Wind Dir Wind Speed Gust Speed Precip Events Conditions
12:00 AM 66.2 °F 50.0 °F 56% 29.98 in 1.2 mi West 4.6 mph - N/A   Mist
2:00 AM 53.6 °F 48.2 °F 82% 29.95 in 0.9 mi Calm Calm - N/A   Mist
2:30 AM 54 °F 48 °F 74% 29.99 in 1 mi Calm Calm - -   Mist
3:00 AM 51.8 °F 48.2 °F 88% 29.95 in 0.8 mi Calm Calm - N/A   Mist
4:00 AM 50.0 °F 48.2 °F 94% 29.95 in 0.6 mi Calm Calm - N/A Fog Shallow Fog
5:00 AM 50.0 °F 46.4 °F 87% 29.95 in 0.6 mi WSW 3.5 mph - N/A Fog Shallow Fog
5:30 AM 52 °F 49 °F 84% 29.98 in 0 mi WSW 3.5 mph - - Fog Partial Fog
6:00 AM 50.0 °F 48.2 °F 94% 29.95 in 0.5 mi Variable 2.3 mph - N/A Fog Shallow Fog
6:30 AM 50.0 °F 46.4 °F 87% 29.98 in 0.5 mi WSW 3.5 mph - N/A Fog Shallow Fog
7:00 AM 51.8 °F 48.2 °F 88% 29.98 in 0.5 mi West 3.5 mph - N/A Fog Shallow Fog
7:30 AM 53.6 °F 48.2 °F 82% 29.98 in 0.5 mi West 2.3 mph - N/A Fog Shallow Fog
8:00 AM 53.6 °F 48.2 °F 82% 30.01 in 0.5 mi West 3.5 mph - N/A Fog Shallow Fog
8:30 AM 57 °F 48 °F 64% 30.04 in 0 mi West 3.5 mph - - Fog Patches of Fog
8:30 AM 57.2 °F 48.2 °F 72% 30.01 in 0.6 mi West 3.5 mph - N/A Fog Shallow Fog
9:30 AM 62.6 °F 50.0 °F 63% 30.04 in 0.9 mi NW 3.5 mph - N/A   Mist
10:00 AM 66.2 °F 50.0 °F 56% 30.04 in 1.2 mi NW 3.5 mph - N/A   Mist
10:30 AM 68.0 °F 50.0 °F 52% 30.01 in 1.2 mi NNW 3.5 mph - N/A   Mist
11:00 AM 69.8 °F 50.0 °F 49% 30.01 in 1.6 mi WNW 5.8 mph - N/A   Haze
11:30 AM 73 °F 52 °F 37% 30.01 in 1 mi WNW 4.6 mph - -   Haze
11:30 AM 73.4 °F 51.8 °F 47% 30.01 in 1.6 mi WNW 4.6 mph - N/A   Haze
12:30 PM 75.2 °F 51.8 °F 44% 29.95 in 1.9 mi NW 5.8 mph - N/A   Haze
1:00 PM 77.0 °F 51.8 °F 41% 29.95 in 1.9 mi NW 5.8 mph - N/A   Haze
2:00 PM 77.0 °F 51.8 °F 41% 29.92 in 1.9 mi NW 5.8 mph - N/A   Haze
2:30 PM 77.0 °F 51.8 °F 41% 29.89 in 1.9 mi NW 6.9 mph - N/A   Haze
3:00 PM 77.0 °F 51.8 °F 41% 29.89 in 1.9 mi NW 9.2 mph - N/A   Haze
3:30 PM 77.0 °F 53.6 °F 44% 29.89 in 1.9 mi WNW 5.8 mph - N/A   Haze
4:00 PM 77.0 °F 53.6 °F 44% 29.89 in 1.9 mi NW 4.6 mph - N/A   Haze
4:30 PM 75.2 °F 53.6 °F 47% 29.89 in 1.9 mi NW 4.6 mph - N/A   Haze
5:00 PM 73.4 °F 53.6 °F 50% 29.89 in 1.9 mi West 3.5 mph - N/A   Haze
5:30 PM 70 °F 54 °F 47% 29.90 in 1 mi West 4.6 mph - -   Haze
5:30 PM 69.8 °F 53.6 °F 56% 29.89 in 1.9 mi West 4.6 mph - N/A   Haze
6:00 PM 69.8 °F 53.6 °F 56% 29.89 in 1.6 mi West 3.5 mph - N/A   Haze
6:30 PM 68.0 °F 53.6 °F 60% 29.89 in 1.6 mi West 4.6 mph - N/A   Haze
7:00 PM 66.2 °F 55.4 °F 68% 29.89 in 1.2 mi West 3.5 mph - N/A   Haze
7:30 PM 66.2 °F 50.0 °F 56% 29.89 in 1.2 mi West 4.6 mph - N/A   Haze
8:00 PM 64.4 °F 51.8 °F 64% 29.92 in 1.2 mi West 4.6 mph - N/A   Haze
8:30 PM 62 °F 50 °F 55% 29.94 in 1 mi West 4.6 mph - -   Haze
8:30 PM 62.6 °F 50.0 °F 63% 29.92 in 1.2 mi West 4.6 mph - N/A   Haze
9:00 PM 60.8 °F 50.0 °F 68% 29.92 in 1.2 mi WSW 4.6 mph - N/A   Haze
10:00 PM 59.0 °F 50.0 °F 72% 29.92 in 1.2 mi West 3.5 mph - N/A   Haze
11:00 PM 57.2 °F 50.0 °F 77% 29.92 in 1.2 mi Calm Calm - N/A   Haze
11:30 PM 56 °F 49 °F 72% 29.95 in 1 mi SW 1.2 mph - -   Mist